sat.trackr.live / text

‹ back to catalog

STARLINK-11480 [DTC]

NORAD 62830 · 2025-019B

PAYLOAD ACTIVE UNKNOWN

§ Identity

Operator
Country
US
Launch date
2025-01-27
Launch site
AFETR
Launch vehicle
Mass (kg)
RCS (m²)

Purposes: comms

External: N2YO · Heavens-Above · Gunter

§ Orbital elements

Epoch: 2026-09-21T05:26:44.265408Z

Period
91.67 min
Inclination
43.0008°
Eccentricity
0.0001647
Mean motion
15.70876776 rev/d
Perigee alt
355.3 km
Apogee alt
357.5 km
Semi-major
6,734.5 km
B*
1.2945e-3
RAAN
207.3531°
Arg perigee
270.7299°
Mean anomaly
89.3380°
Rev number
9,463

§ Raw data

STARLINK-11480 [DTC]1 62830U 25019B   26264.22690122  .00169336  00000+0  12945-2 0  99902 62830  43.0008 207.3531 0001647 270.7299  89.3380 15.70876776 94638

JSON: /api/v1/satellites/62830 · /tle

For live sub-satellite position, see the globe view (requires WebGL).

§ Visibility from observer

Set your observer location to see the next 7 days of passes ≥ 10°. The values pass through the URL so the page stays shareable.

No JS? Fill the form by hand. The geolocation button needs JavaScript.